Weather History for Bow Valley, AB

Change the Weather History Date:

Saturday, October 20, 2012

  Actual Average Record
Temperature  
Mean Temperature 30 °F -  
Max Temperature 34 °F - - ()
Min Temperature 25 °F - - ()
Degree Days  
Heating Degree Days 36    
Moisture  
Dew Point 28 °F    
Average Humidity 86    
Maximum Humidity 96    
Minimum Humidity 60    
Precipitation  
Precipitation 0.31 in - - ()
Sea Level Pressure  
Sea Level Pressure 29.55 in    
Wind  
Wind Speed 4 mph ()    
Max Wind Speed 9 mph    
Max Gust Speed 21 mph    
T = Trace of Precipitation, MM = Missing Value Source: Averaged Metar Reports

Daily Weather History Graph

Daily Weather History Graph

Search for Another Location

Airport:

Trip Planner

Search our weather history database for the weather conditions in past years. The results will help you decide how hot, cold, wet, or windy it might be!

Date:

Astronomy

Oct. 20, 2012 Rise Set
Actual Time 8:13 AM MDT 6:35 PM MDT
Civil Twilight 7:39 AM MDT 7:09 PM MDT
Nautical Twilight 7:00 AM MDT 7:48 PM MDT
Astronomical Twilight 6:22 AM MDT 8:26 PM MDT
Moon 2:11 PM MDT (10/20) 11:08 PM MDT (10/20)
Length of Visible Light 11h 30m
Length of Day
10h 22m
Waxing Crescent, 35% of the Moon is Illuminated
Oct 20
Waxing Crescent
Oct 21
First Quarter
Oct 29
Full
Nov 6
Last Quarter
Nov 13
New

Hourly Weather History & Observations

Time (MDT) Temp. Windchill Dew Point Humidity Pressure Visibility Wind Dir Wind Speed Gust Speed Precip Events Conditions
12:00 AM 42 °F - 34 °F 63% 29.37 in - WSW 5.8 mph - -  
12:00 AM 42.1 °F 38.4 °F 33.6 °F 72% 29.37 in - WSW 5.8 mph - N/A   Unknown
1:00 AM 39.6 °F 33.5 °F 33.3 °F 78% 29.37 in - WSW 9.2 mph 17.3 mph N/A   Unknown
2:00 AM 37.8 °F 31.3 °F 34.0 °F 86% 29.40 in - WSW 9.2 mph 20.7 mph N/A   Unknown
3:00 AM 39.6 °F 34.7 °F 33.3 °F 78% 29.41 in - WNW 6.9 mph - N/A   Unknown
4:00 AM 38.8 °F 35.4 °F 27.3 °F 63% 29.37 in - WSW 4.6 mph - N/A   Unknown
5:00 AM 37.6 °F 32.3 °F 24.6 °F 60% 29.38 in - WSW 6.9 mph - N/A   Unknown
6:00 AM 34 °F - 28 °F 70% 29.41 in - NNE 3.5 mph - -  
6:00 AM 34.3 °F 31.4 °F 27.9 °F 77% 29.41 in - NNE 3.5 mph - N/A   Unknown
7:00 AM 31.8 °F - 30.7 °F 96% 29.44 in - North 1.2 mph - N/A   Unknown
8:00 AM 29.1 °F 25.4 °F 28.0 °F 96% 29.44 in - SE 3.5 mph - N/A   Unknown
9:00 AM 31.3 °F 25.6 °F 29.7 °F 94% 29.47 in - WSW 5.8 mph - N/A   Unknown
10:00 AM 33.1 °F 28.7 °F 30.9 °F 92% 29.49 in - NNE 4.6 mph - N/A   Unknown
11:00 AM 32.9 °F 25.9 °F 28.8 °F 85% 29.53 in - ENE 8.1 mph - N/A   Unknown
12:00 PM 33 °F - 29 °F 81% 29.56 in - East 5.8 mph - -  
12:00 PM 33.4 °F 28.1 °F 29.3 °F 85% 29.56 in - East 5.8 mph - N/A   Unknown
1:00 PM 30.2 °F 25.4 °F 27.7 °F 90% 29.60 in - ENE 4.6 mph - 0.03 in   Unknown
2:00 PM 28.6 °F - 27.3 °F 95% 29.62 in - East 2.3 mph - 0.05 in   Unknown
3:00 PM 27.5 °F 21.1 °F 26.2 °F 95% 29.64 in - ENE 5.8 mph - 0.10 in   Unknown
4:00 PM 27.7 °F 23.8 °F 26.1 °F 94% 29.67 in - East 3.5 mph - 0.07 in   Unknown
5:00 PM 27.0 °F - 25.0 °F 92% 29.70 in - North 1.2 mph - 0.01 in   Unknown
6:00 PM 26 °F - 24 °F 90% 29.73 in - NNE 1.2 mph - -  
6:00 PM 26.1 °F - 24.3 °F 93% 29.73 in - NNE 1.2 mph - 0.04 in   Unknown
7:00 PM 26.4 °F - 25.2 °F 95% 29.76 in - NNE 2.3 mph - N/A   Unknown
8:00 PM 26.1 °F - 24.8 °F 95% 29.76 in - NE 2.3 mph - N/A   Unknown
9:00 PM 26.1 °F - 25.0 °F 96% 29.76 in - NE 2.3 mph - 0.01 in   Unknown
10:00 PM 25.7 °F - 24.4 °F 95% 29.78 in - NNE 2.3 mph - N/A   Unknown
11:00 PM 25.5 °F - 24.1 °F 94% 29.80 in - NNE 2.3 mph - N/A   Unknown